TimeEDT,TemperatureF,Dew PointF,Humidity,Sea Level PressureIn,VisibilityMPH,Wind Direction,Wind SpeedMPH,Gust SpeedMPH,PrecipitationIn,Events,Conditions,WindDirDegrees,DateUTC
12:53 AM,25.0,17.1,72,30.27,10.0,Calm,Calm,-,N/A,,Clear,0,2014-04-16 04:53:00
1:53 AM,25.0,16.0,69,30.28,10.0,SE,4.6,-,N/A,,Clear,130,2014-04-16 05:53:00
2:53 AM,26.1,15.1,63,30.29,10.0,SE,5.8,-,N/A,,Clear,140,2014-04-16 06:53:00
3:53 AM,26.1,16.0,66,30.31,10.0,SE,3.5,-,N/A,,Clear,140,2014-04-16 07:53:00
4:53 AM,26.1,16.0,66,30.33,10.0,Calm,Calm,-,N/A,,Clear,0,2014-04-16 08:53:00
5:53 AM,25.0,15.1,66,30.35,10.0,SE,5.8,-,N/A,,Clear,140,2014-04-16 09:53:00
6:53 AM,25.0,16.0,69,30.36,10.0,SE,8.1,-,N/A,,Clear,140,2014-04-16 10:53:00
7:53 AM,28.0,17.1,63,30.38,10.0,SSE,8.1,-,N/A,,Clear,150,2014-04-16 11:53:00
8:53 AM,32.0,15.1,50,30.40,10.0,SSE,13.8,-,N/A,,Clear,150,2014-04-16 12:53:00
9:53 AM,36.0,16.0,44,30.42,10.0,SSE,11.5,-,N/A,,Clear,150,2014-04-16 13:53:00
10:53 AM,39.0,17.1,41,30.41,10.0,SSE,12.7,-,N/A,,Clear,150,2014-04-16 14:53:00
11:53 AM,41.0,18.0,40,30.41,10.0,SSE,16.1,-,N/A,,Clear,150,2014-04-16 15:53:00
12:53 PM,43.0,19.0,38,30.39,10.0,South,13.8,-,N/A,,Clear,170,2014-04-16 16:53:00
2:53 PM,46.9,19.0,33,30.35,10.0,SSE,15.0,25.3,N/A,,Clear,160,2014-04-16 18:53:00
3:53 PM,48.0,19.9,33,30.32,10.0,SSE,18.4,26.5,N/A,,Clear,150,2014-04-16 19:53:00
4:53 PM,48.9,21.0,33,30.29,10.0,SSE,15.0,23.0,N/A,,Clear,150,2014-04-16 20:53:00
5:53 PM,48.9,21.0,33,30.28,10.0,SE,19.6,27.6,N/A,,Clear,130,2014-04-16 21:53:00
6:53 PM,48.0,21.0,34,30.27,10.0,SE,16.1,-,N/A,,Clear,130,2014-04-16 22:53:00
7:53 PM,46.9,23.0,39,30.26,10.0,SE,15.0,-,N/A,,Clear,130,2014-04-16 23:53:00
8:53 PM,44.1,23.0,43,30.26,10.0,SE,10.4,-,N/A,,Clear,130,2014-04-17 00:53:00
9:53 PM,41.0,25.0,53,30.27,10.0,ESE,9.2,-,N/A,,Clear,110,2014-04-17 01:53:00
10:53 PM,42.1,26.1,53,30.27,10.0,ESE,10.4,-,N/A,,Clear,120,2014-04-17 02:53:00
11:53 PM,41.0,27.0,57,30.27,10.0,SE,13.8,-,N/A,,Clear,140,2014-04-17 03:53:00